When you browse on this site, cookies collect data to enhance your experience and personalize the content and advertising you see.
Visit our Privacy Policy to learn more. By continuing to use the site, you agree to this use of cookies and data.
  • In Hungary
  • List of Countries
  • For 7 days
  • Water Temperature
  • Satellite Maps
  • Weather Map
  • News
  • Weather Widgets
  • user-avatar
    Login

    Hourly Weather Coro

    Today, 23 July, Tuesday

    Time Temperature Precipitation Wind Pressure Humidity
    00:00 +27°C° 0 mm 6 mps 756 mmHg 89%
    01:00 +27°C° 0 mm 5 mps 756 mmHg 89%
    02:00 +27°C° 0 mm 5 mps 756 mmHg 90%
    03:00 +27°C° 0 mm 5 mps 755 mmHg 91%
    04:00 +26°C° 0 mm 6 mps 755 mmHg 92%
    05:00 +27°C° 0 mm 6 mps 756 mmHg 88%
    06:00 +28°C° 0 mm 6 mps 756 mmHg 85%
    07:00 +29°C° 0 mm 6 mps 756 mmHg 81%
    08:00 +32°C° 0 mm 6 mps 756 mmHg 72%
    09:00 +34°C° 0 mm 6 mps 756 mmHg 62%
    10:00 +35°C° 0 mm 6 mps 756 mmHg 53%
    11:00 +36°C° 0 mm 7 mps 756 mmHg 49%
    12:00 +38°C° 0 mm 7 mps 756 mmHg 45%
    13:00 +39°C° 0 mm 8 mps 755 mmHg 41%
    14:00 +39°C° 0 mm 8 mps 755 mmHg 44%
    15:00 +38°C° 0 mm 9 mps 754 mmHg 47%
    16:00 +37°C° 0 mm 9 mps 753 mmHg 50%
    17:00 +34°C° 0 mm 8 mps 754 mmHg 59%
    18:00 +32°C° 0 mm 7 mps 755 mmHg 68%
    19:00 +28°C° 0 mm 7 mps 755 mmHg 77%
    20:00 +28°C° 0 mm 6 mps 756 mmHg 81%
    21:00 +27°C° 0 mm 6 mps 756 mmHg 85%
    22:00 +27°C° 0 mm 6 mps 757 mmHg 89%
    23:00 +27°C° 0 mm 5 mps 757 mmHg 90%

    Tomorrow, 24 July, Wednesday

    Time Temperature Precipitation Wind Pressure Humidity
    00:00 +27°C° 0 mm 5 mps 756 mmHg 91%
    01:00 +27°C° 0 mm 5 mps 756 mmHg 92%
    02:00 +27°C° 0.1 mm 5 mps 756 mmHg 93%
    03:00 +26°C° 0.1 mm 5 mps 756 mmHg 94%
    04:00 +26°C° 0.1 mm 5 mps 755 mmHg 95%
    05:00 +27°C° 0.1 mm 5 mps 756 mmHg 91%
    06:00 +28°C° 0.1 mm 6 mps 756 mmHg 87%
    07:00 +29°C° 0.1 mm 6 mps 757 mmHg 84%
    08:00 +30°C° 0 mm 7 mps 757 mmHg 75%
    09:00 +33°C° 0 mm 7 mps 757 mmHg 67%
    10:00 +35°C° 0 mm 7 mps 757 mmHg 58%
    11:00 +37°C° 0 mm 8 mps 756 mmHg 52%
    12:00 +38°C° 0 mm 9 mps 756 mmHg 47%
    13:00 +39°C° 0 mm 9 mps 755 mmHg 41%
    14:00 +38°C° 0 mm 9 mps 755 mmHg 45%
    15:00 +37°C° 0 mm 9 mps 754 mmHg 49%
    16:00 +35°C° 0 mm 9 mps 754 mmHg 53%
    17:00 +33°C° 0 mm 8 mps 755 mmHg 63%
    18:00 +30°C° 0 mm 7 mps 755 mmHg 73%
    19:00 +28°C° 0 mm 6 mps 755 mmHg 83%
    20:00 +27°C° 0 mm 6 mps 756 mmHg 86%
    21:00 +27°C° 0 mm 5 mps 756 mmHg 89%
    22:00 +26°C° 0 mm 5 mps 757 mmHg 92%
    23:00 +26°C° 0 mm 5 mps 756 mmHg 93%

    Day after tomorrow, 25 July, Thursday

    Time Temperature Precipitation Wind Pressure Humidity
    00:00 +26°C° 0 mm 5 mps 756 mmHg 94%
    01:00 +26°C° 0 mm 5 mps 755 mmHg 94%
    02:00 +26°C° 0 mm 5 mps 755 mmHg 95%
    03:00 +26°C° 0 mm 5 mps 755 mmHg 95%
    04:00 +25°C° 0 mm 4 mps 755 mmHg 95%
    05:00 +26°C° 0 mm 5 mps 756 mmHg 91%
    06:00 +27°C° 0 mm 5 mps 756 mmHg 86%
    07:00 +28°C° 0 mm 5 mps 756 mmHg 81%
    08:00 +30°C° 0 mm 5 mps 756 mmHg 72%
    09:00 +32°C° 0 mm 6 mps 757 mmHg 62%
    10:00 +34°C° 0 mm 6 mps 757 mmHg 53%
    11:00 +35°C° 0 mm 7 mps 756 mmHg 48%
    12:00 +37°C° 0 mm 8 mps 756 mmHg 44%
    13:00 +38°C° 0 mm 8 mps 755 mmHg 39%
    14:00 +37°C° 0 mm 8 mps 755 mmHg 45%
    15:00 +35°C° 0 mm 8 mps 754 mmHg 50%
    16:00 +34°C° 0 mm 8 mps 754 mmHg 55%
    17:00 +32°C° 0 mm 8 mps 754 mmHg 65%
    18:00 +29°C° 0 mm 8 mps 755 mmHg 75%
    19:00 +27°C° 0 mm 7 mps 755 mmHg 85%
    20:00 +27°C° 0 mm 7 mps 756 mmHg 87%
    21:00 +27°C° 0 mm 6 mps 756 mmHg 89%
    22:00 +27°C° 0 mm 6 mps 757 mmHg 91%
    23:00 +26°C° 0 mm 6 mps 756 mmHg 92%

    26 July, Friday

    Time Temperature Precipitation Wind Pressure Humidity
    00:00 +26°C° 0 mm 5 mps 756 mmHg 93%
    01:00 +26°C° 0 mm 5 mps 755 mmHg 95%
    02:00 +26°C° 0 mm 5 mps 755 mmHg 95%
    03:00 +26°C° 0 mm 5 mps 755 mmHg 95%
    04:00 +25°C° 0 mm 5 mps 755 mmHg 95%
    05:00 +26°C° 0 mm 5 mps 756 mmHg 91%
    06:00 +27°C° 0 mm 5 mps 756 mmHg 86%
    07:00 +28°C° 0 mm 6 mps 757 mmHg 81%
    08:00 +30°C° 0 mm 6 mps 757 mmHg 72%
    09:00 +33°C° 0 mm 6 mps 757 mmHg 62%
    10:00 +35°C° 0 mm 6 mps 757 mmHg 53%
    11:00 +36°C° 0 mm 6 mps 756 mmHg 49%
    12:00 +38°C° 0 mm 7 mps 756 mmHg 45%
    13:00 +39°C° 0 mm 8 mps 755 mmHg 42%
    14:00 +38°C° 0.1 mm 9 mps 755 mmHg 46%
    15:00 +37°C° 0.1 mm 9 mps 755 mmHg 51%
    16:00 +35°C° 0.1 mm 9 mps 755 mmHg 55%
    17:00 +33°C° 0 mm 8 mps 755 mmHg 64%
    18:00 +31°C° 0 mm 8 mps 756 mmHg 74%
    19:00 +28°C° 0 mm 7 mps 756 mmHg 83%
    20:00 +28°C° 0 mm 6 mps 757 mmHg 86%
    21:00 +27°C° 0 mm 6 mps 757 mmHg 88%
    22:00 +27°C° 0 mm 5 mps 758 mmHg 91%
    23:00 +27°C° 0.1 mm 5 mps 757 mmHg 91%

    27 July, Saturday

    Time Temperature Precipitation Wind Pressure Humidity
    00:00 +27°C° 0.1 mm 5 mps 757 mmHg 92%
    01:00 +27°C° 0.1 mm 5 mps 756 mmHg 92%
    02:00 +26°C° 0.1 mm 5 mps 756 mmHg 93%
    03:00 +26°C° 0.1 mm 5 mps 756 mmHg 94%
    04:00 +26°C° 0.1 mm 5 mps 756 mmHg 94%
    05:00 +27°C° 0.1 mm 5 mps 757 mmHg 90%
    06:00 +28°C° 0.1 mm 6 mps 757 mmHg 85%
    07:00 +28°C° 0.1 mm 6 mps 757 mmHg 80%
    08:00 +30°C° 0 mm 6 mps 758 mmHg 72%
    09:00 +33°C° 0 mm 7 mps 758 mmHg 63%
    10:00 +34°C° 0 mm 7 mps 758 mmHg 54%
    11:00 +37°C° 0 mm 8 mps 757 mmHg 49%
    12:00 +38°C° 0 mm 8 mps 757 mmHg 44%
    13:00 +39°C° 0 mm 9 mps 756 mmHg 39%
    14:00 +38°C° 0 mm 9 mps 756 mmHg 43%
    15:00 +37°C° 0 mm 9 mps 755 mmHg 47%
    16:00 +35°C° 0 mm 9 mps 755 mmHg 51%
    17:00 +33°C° 0 mm 8 mps 755 mmHg 61%
    18:00 +30°C° 0 mm 7 mps 756 mmHg 71%
    19:00 +28°C° 0 mm 6 mps 756 mmHg 81%
    20:00 +27°C° 0 mm 5 mps 757 mmHg 85%
    21:00 +27°C° 0 mm 5 mps 757 mmHg 89%
    22:00 +26°C° 0 mm 5 mps 758 mmHg 92%
    23:00 +26°C° 0 mm 4 mps 757 mmHg 92%

    28 July, Sunday

    Time Temperature Precipitation Wind Pressure Humidity
    00:00 +26°C° 0 mm 4 mps 757 mmHg 92%
    01:00 +26°C° 0 mm 4 mps 756 mmHg 92%
    02:00 +26°C° 0 mm 4 mps 756 mmHg 91%
    03:00 +26°C° 0 mm 4 mps 756 mmHg 91%
    04:00 +26°C° 0 mm 4 mps 756 mmHg 90%
    05:00 +27°C° 0 mm 4 mps 756 mmHg 88%
    06:00 +27°C° 0 mm 4 mps 757 mmHg 85%
    07:00 +27°C° 0 mm 4 mps 757 mmHg 83%
    08:00 +29°C° 0 mm 4 mps 757 mmHg 74%
    09:00 +32°C° 0 mm 5 mps 757 mmHg 65%
    10:00 +34°C° 0 mm 5 mps 757 mmHg 56%
    11:00 +35°C° 0 mm 6 mps 756 mmHg 53%
    12:00 +36°C° 0 mm 7 mps 756 mmHg 49%
    13:00 +39°C° 0 mm 8 mps 755 mmHg 45%
    14:00 +37°C° 0.3 mm 8 mps 755 mmHg 51%
    15:00 +35°C° 0.3 mm 8 mps 754 mmHg 57%
    16:00 +33°C° 0.3 mm 8 mps 754 mmHg 63%
    17:00 +32°C° 0 mm 7 mps 754 mmHg 69%
    18:00 +30°C° 0 mm 7 mps 755 mmHg 75%
    19:00 +28°C° 0 mm 6 mps 755 mmHg 80%
    20:00 +28°C° 0 mm 6 mps 755 mmHg 82%
    21:00 +28°C° 0 mm 5 mps 756 mmHg 84%
    22:00 +27°C° 0 mm 5 mps 756 mmHg 86%
    23:00 +27°C° 0 mm 5 mps 755 mmHg 87%
    Show more